Find SBS 2

NORAD ID: 12855 Int'l Des: 1981-096 Owner: SBS Country: US operational
HEOCIRCULAR

現在のビュー

3D地球を読み込み中...

SBS 2について

説明を読み込み中...

次回通過

Passes for default location (London). Set your location on the main map for personalized predictions.

高度履歴

Loading altitude history...

軌道要素

1 12855U 81096A 26150.51872483 -.00000095 00000-0 00000+0 0 9991
2 12855 10.2903 321.5846 0004424 240.7506 311.2218 1.00106975118439
Epoch: May 30, 2026 • Age: 16 hours

現在のステータス

高度 35850.3 km
速度 3.07 km/s
衛星直下点 9.59°N, 78.05°E
打ち上げ日 Sep 24, 1981
運用期間 44.6 years
タイプ other

技術仕様

分類 Payload
質量 521.00 kg
乾燥質量 424.00 kg
総質量 1064.00 kg
長さ 6.60 m
直径 2.20 m
スパン 6.60 m
形状 Cyl
製造者 HSES
バスタイプ HS-376
フェーズステータス Unknown Active Status
所有者/国 SBS/US

Most Searched